Wind_Speed
5 5 4 3 2 1 2 3 3 3 4 6 7 9 10 10 1 1 1 0 1 2 2 2 4 5 4 4 4 3 5 3 7 7 4 4 3 0 1 6 2 2 3 2 18
5 4 3 3 2 1 2 2 4 6 7 7 8 10 12 8 1 3 2 2 1 1 2 4 3 5 4 3 4 5 4 8 5 5 3 4 3 7 4 3 3 3 2 4 23
5 4 4 3 2 2 2 4 5 6 7 8 10 12 11 4 2 1 2 1 1 2 3 3 4 3 3 3 3 3 4 5 3 2 3 5 2 5 7 4 7 9 6 11 17
4 4 3 3 2 0 2 4 5 7 8 9 10 11 7 3 2 3 3 1 2 2 3 4 5 3 3 2 1 4 1 2 1 0 3 4 5 4 6 6 1 8 7 11 11
5 4 4 4 2 1 2 3 4 6 8 9 10 10 2 3 1 3 2 1 2 2 4 3 3 4 5 3 2 3 0 1 1 2 1 2 3 6 7 6 3 5 10 11 11
7 7 7 6 5 4 3 4 5 7 8 9 11 8 2 1 0 1 0 2 3 3 3 4 3 4 5 2 3 2 1 2 2 2 2 1 1 1 4 3 3 6 11 10 12
7 7 9 10 9 7 6 5 6 7 8 8 9 7 3 5 1 1 1 2 4 3 3 4 3 3 2 3 1 3 1 4 2 2 2 4 6 11 4 2 5 7 8 8 12
7 7 8 8 10 10 9 7 6 7 7 8 7 4 4 1 2 3 3 4 4 5 6 4 6 5 4 3 6 4 5 2 2 4 2 4 8 10 2 6 10 8 8 9 10
8 8 8 8 9 10 10 10 7 7 7 6 3 3 6 0 2 4 3 4 5 6 7 5 6 4 5 4 5 6 2 3 7 6 3 4 6 4 1 5 9 9 9 9 9
10 9 9 9 9 10 7 7 7 7 2 2 1 3 0 1 2 4 5 7 5 4 5 7 6 4 3 4 5 5 3 4 4 2 2 4 11 10 7 5 10 9 9 10 10
10 12 10 10 9 9 6 2 3 2 1 6 3 1 1 2 3 3 4 6 3 7 4 3 4 7 11 6 2 5 3 4 4 3 3 7 9 11 9 6 11 10 10 14 15
6 11 12 11 9 7 4 1 2 1 4 5 2 4 3 5 2 3 8 5 3 4 5 5 7 9 4 4 3 2 3 6 5 3 2 8 14 13 7 8 10 14 14 16 11
6 6 10 14 9 7 6 4 2 1 0 6 5 5 5 9 6 9 10 4 4 5 7 7 4 4 7 4 5 5 6 5 6 4 4 5 8 8 7 5 6 11 15 12 17
5 4 6 13 6 6 5 2 3 1 2 6 5 6 4 7 4 2 13 6 2 11 7 6 3 4 3 4 8 5 7 5 3 2 4 1 6 7 7 9 9 15 13 19 18
7 4 1 14 6 5 1 6 7 1 4 3 3 2 3 6 4 2 1 3 9 8 7 8 8 5 5 6 7 6 4 6 3 3 3 1 2 5 2 8 14 15 15 15 13
7 6 0 18 6 3 4 14 4 4 10 3 2 4 5 2 3 2 2 4 4 5 2 4 1 6 8 2 4 8 6 6 4 2 5 11 8 7 6 9 6 11 14 11 7
8 8 6 3 2 11 15 7 4 4 4 3 4 4 3 5 2 3 6 5 7 5 9 1 5 3 3 5 3 3 6 2 3 1 9 3 4 16 6 10 9 13 14 7 6
11 14 13 10 4 16 12 3 6 5 6 2 3 2 6 6 4 4 7 6 7 2 3 8 7 11 7 9 8 9 8 6 7 4 5 3 8 8 10 9 10 7 12 6 7
11 14 9 14 12 24 4 8 7 5 5 8 0 4 3 2 4 4 6 5 8 10 9 6 6 1 3 2 9 6 8 3 1 2 3 5 8 9 8 12 10 13 8 11 8
6 6 7 9 12 14 7 15 8 9 8 4 12 13 10 6 6 7 9 6 6 13 3 5 4 2 0 2 2 4 6 3 2 3 5 6 7 8 7 9 12 10 11 9 5
2 2 5 17 15 4 12 7 8 5 10 7 8 6 7 8 8 6 7 4 6 6 18 5 4 1 3 7 10 3 4 1 4 5 5 3 9 8 10 12 9 10 8 6 6
2 2 3 20 7 3 12 11 7 4 4 10 5 11 10 8 8 8 14 10 7 10 12 8 4 5 10 2 3 1 5 7 4 5 4 2 15 5 8 7 6 10 7 3 4
2 3 4 16 7 11 8 15 15 3 9 5 8 10 7 13 10 12 9 6 10 10 12 9 4 2 7 2 3 5 6 7 4 3 13 5 15 1 1 6 5 8 8 5 5
2 2 3 3 3 7 14 20 14 9 18 7 5 10 4 11 11 6 9 5 10 10 7 8 5 10 15 5 4 6 8 13 14 4 21 14 34 10 2 4 7 8 10 9 8
4 4 4 3 9 10 6 4 17 15 12 17 20 16 10 10 12 17 8 2 3 3 6 9 8 9 22 8 3 5 5 10 17 29 12 31 20 31 15 14 15 11 8 10 9
4 3 1 2 2 4 8 20 18 14 5 16 20 17 21 19 13 8 20 6 6 5 9 5 6 10 20 17 9 9 8 14 23 23 17 30 28 32 20 7 8 11 13 14 10
8 5 2 3 4 4 8 7 7 9 17 18 16 15 17 20 21 19 12 10 9 10 9 10 8 7 16 15 7 13 25 25 21 24 21 21 36 21 21 17 19 16 11 13 13
Wind_Direction
147 140 129 115 89 25 29 13 356 8 2 349 349 343 337 339 349 125 56 335 316 330 358 50 61 35 51 70 52 114 66 168 195 153 227 164 148 100 88 119 214 218 159 272 166
143 138 127 113 99 53 25 1 4 2 355 348 347 346 340 343 97 76 327 305 259 73 82 69 50 23 40 47 27 78 111 209 187 192 196 189 165 171 152 140 244 284 212 171 165
164 158 153 138 106 31 7 9 5 1 352 350 352 347 341 359 64 351 341 245 186 125 90 81 78 62 61 33 12 152 165 189 213 213 181 176 206 179 136 231 219 206 183 161 173
195 189 192 169 173 104 5 11 2 354 352 350 351 352 349 27 176 1 353 28 141 145 117 92 51 64 75 101 6 89 101 177 160 61 126 167 128 205 190 217 334 219 164 168 177
226 224 225 223 229 272 322 348 349 349 348 347 354 354 1 47 280 357 6 92 115 107 89 105 93 121 138 130 82 78 258 29 357 45 104 142 221 225 242 236 22 126 159 184 192
265 258 260 257 251 263 286 318 331 341 346 347 351 354 60 119 134 324 2 105 85 72 58 57 153 156 110 94 106 147 123 335 339 326 325 214 282 22 274 128 146 171 200 199 202
292 297 287 272 271 269 281 299 317 329 335 340 347 359 57 219 175 174 135 90 58 78 92 57 79 66 101 105 178 94 48 336 233 253 247 153 297 239 206 133 217 224 226 222 223
281 285 299 305 293 279 275 274 294 312 324 330 339 354 244 228 186 151 126 99 81 69 87 68 77 96 58 119 19 52 50 32 255 148 313 129 265 273 238 171 236 233 232 232 235
265 281 285 298 307 306 280 278 283 294 308 317 334 38 275 30 181 184 160 126 102 78 68 63 64 79 35 80 12 10 232 210 315 197 136 170 262 276 56 206 248 237 234 237 252
251 261 274 286 299 312 292 276 282 291 293 301 47 30 209 222 138 151 136 131 100 81 37 45 50 68 40 97 219 208 227 258 252 205 177 230 255 273 266 206 248 251 248 245 245
245 248 255 270 282 306 322 255 8 325 214 197 197 191 160 126 123 155 150 106 85 58 142 13 101 213 205 193 128 135 182 231 245 261 210 237 261 258 264 228 253 245 239 241 234
252 240 241 251 260 287 306 222 140 136 321 232 220 275 228 176 109 248 168 128 123 153 119 44 231 222 141 155 157 148 198 255 284 247 199 279 269 263 233 235 214 232 235 237 237
320 280 245 236 217 255 255 242 125 119 310 290 195 189 201 162 214 202 149 138 128 127 188 169 216 121 148 150 169 215 190 220 228 335 253 321 281 257 261 246 251 245 239 242 230
348 291 238 192 181 207 250 270 183 92 14 262 227 252 147 148 253 182 175 140 159 190 156 230 250 156 166 190 165 237 208 172 201 59 249 92 286 282 259 256 232 250 230 238 237
3 4 255 205 179 177 206 191 182 106 259 211 176 138 150 178 143 301 227 47 163 171 138 234 175 170 181 204 155 227 127 157 137 179 320 148 285 245 335 269 257 252 249 241 237
339 353 242 202 196 176 180 142 11 140 223 198 122 159 125 34 41 77 127 43 148 121 272 233 171 169 193 126 158 148 82 56 52 95 275 185 172 254 194 213 252 256 256 257 250
314 316 306 248 219 198 146 89 135 223 345 187 198 176 152 153 118 125 153 179 164 146 219 119 214 175 150 94 50 123 98 314 330 4 241 59 166 248 295 264 223 250 263 265 228
301 308 295 265 213 188 146 106 198 183 252 45 105 58 183 160 189 151 138 190 250 121 122 186 273 164 188 187 168 199 163 170 214 208 270 102 233 248 239 267 261 266 258 253 219
290 301 284 252 226 173 173 225 215 196 175 161 228 59 253 212 140 141 203 223 197 178 185 173 268 195 147 159 153 196 204 195 55 75 11 233 281 295 264 271 270 249 275 259 225
325 308 253 235 209 219 215 234 225 176 150 190 191 182 193 198 171 179 173 209 211 185 178 213 279 38 127 135 27 169 163 81 348 196 248 269 268 229 276 255 254 265 247 268 234
304 314 288 199 170 214 237 222 239 233 183 175 214 214 198 180 184 199 207 257 212 190 192 156 168 251 141 209 171 138 208 143 137 158 184 289 265 215 218 234 254 263 261 257 244
139 230 339 164 181 198 227 228 159 178 197 236 217 223 203 179 192 207 215 216 163 145 172 210 163 213 212 225 233 255 226 155 144 224 241 176 266 146 231 256 246 265 284 287 250
182 232 283 198 212 218 225 244 241 223 194 212 237 220 192 210 225 205 207 200 170 164 171 171 190 332 317 343 343 209 199 207 108 80 229 147 258 80 62 305 315 284 295 300 254
152 263 270 183 293 239 228 243 250 212 239 225 214 242 235 228 216 244 239 194 188 200 175 160 152 196 228 200 140 195 193 194 198 187 246 230 260 251 342 297 288 281 267 255 243
179 223 217 209 239 240 253 302 241 246 220 210 236 228 229 237 232 240 237 138 180 212 189 175 202 207 244 239 210 202 179 188 204 228 214 255 246 262 254 249 246 244 258 249 248
199 171 291 246 311 225 243 247 251 259 258 237 234 230 217 234 236 231 234 198 205 181 176 198 225 217 253 250 231 251 212 214 218 236 238 253 259 259 264 258 227 236 251 257 264
200 171 96 218 217 223 236 243 260 259 261 243 270 276 246 233 239 247 269 276 221 199 185 175 175 189 241 238 238 252 241 248 250 246 233 244 252 267 266 258 255 247 243 247 246
Height
806 806 806 806 807 808 807 806 807 806 805 804 803 803 801 799 797 796 797 797 797 796 797 796 796 796 797 802 805 810 838 847 839 841 825 822 822 823 824 829 829 829 830 829 829
806 807 807 807 808 808 808 809 808 806 804 804 802 801 798 797 797 796 798 796 797 797 797 797 798 799 806 807 811 822 841 834 825 826 821 822 821 825 826 829 829 829 828 828 830
805 806 807 806 806 808 809 808 806 805 804 802 800 799 797 795 796 797 797 796 796 796 797 798 798 801 809 809 814 821 831 822 817 817 818 821 821 822 828 832 825 825 824 827 829
805 806 806 806 806 807 807 806 806 805 803 801 800 797 796 795 811 798 797 796 796 797 797 797 800 807 816 816 813 819 819 818 816 816 819 821 821 822 825 818 816 817 819 824 827
806 806 806 806 806 807 807 806 806 805 803 802 799 797 798 798 800 798 797 798 798 797 797 798 803 808 817 815 814 817 819 816 816 817 818 817 819 822 819 814 816 817 820 822 824
806 806 807 807 806 806 807 807 806 804 802 801 800 799 798 804 797 799 799 799 798 798 799 799 802 803 813 816 818 817 818 819 818 817 818 820 821 819 813 814 816 820 820 821 821
805 806 806 806 806 806 806 806 805 804 803 802 801 799 799 799 797 798 799 799 799 799 800 801 802 804 810 817 816 818 821 822 821 820 820 820 827 822 812 816 817 820 821 821 820
805 805 806 805 805 805 805 805 805 804 803 802 801 800 801 796 797 798 799 799 800 800 801 802 802 807 813 817 824 826 834 837 822 824 822 822 838 815 813 817 817 820 821 820 818
804 805 805 805 805 804 804 804 803 803 802 801 802 801 802 797 798 797 799 799 801 802 802 803 804 818 819 832 841 844 842 840 833 827 824 828 830 814 818 819 818 819 819 818 816
802 803 804 805 805 804 802 802 802 802 802 801 801 805 798 798 797 798 799 800 801 803 806 810 821 832 838 839 851 843 844 843 838 826 828 830 832 820 816 819 817 817 817 816 814
799 801 802 803 805 805 803 802 805 804 801 797 797 798 797 798 798 798 799 800 802 808 819 821 830 835 828 829 827 834 837 836 832 823 826 830 828 820 811 816 814 812 813 807 804
797 798 799 801 804 805 803 801 801 804 804 795 796 797 796 796 799 799 799 804 806 818 820 830 834 818 820 827 827 831 834 839 833 827 829 828 822 810 808 805 800 798 798 795 794
793 794 795 800 802 804 803 801 801 801 806 797 793 793 793 795 795 796 798 803 810 821 823 828 814 816 819 828 831 834 838 837 834 830 831 830 825 812 794 795 792 790 783 783 781
795 795 796 794 804 801 802 800 801 801 815 800 793 787 788 790 795 791 793 798 810 814 823 823 814 815 822 825 826 835 827 827 830 836 848 830 839 814 795 790 787 776 777 771 770
796 795 796 797 797 799 799 799 802 802 822 786 789 785 786 789 791 794 794 794 809 810 815 811 816 818 821 818 821 825 824 831 830 840 840 838 845 803 795 792 779 765 763 761 761
795 794 795 795 796 797 798 799 805 813 807 786 788 789 791 791 794 796 796 795 799 807 807 808 806 809 808 813 814 823 826 837 847 846 848 828 832 794 795 779 769 758 754 754 759
794 796 795 792 794 796 799 804 816 799 790 786 790 791 789 795 797 797 802 804 807 816 813 810 808 805 805 815 817 817 826 846 854 866 835 830 832 772 768 763 764 757 749 753 754
793 794 791 792 792 794 798 808 791 806 793 788 790 792 790 792 795 799 804 807 802 801 815 813 814 805 801 799 811 821 819 842 847 854 833 834 820 782 762 758 754 754 750 751 752
791 791 788 788 790 792 797 794 784 790 782 789 793 791 794 791 794 797 805 802 793 797 801 813 808 795 797 793 793 817 821 808 819 892 857 804 788 766 758 757 753 750 749 747 749
789 788 784 785 788 791 786 780 774 772 775 778 780 780 791 795 793 799 802 783 783 783 781 790 802 799 796 794 799 799 803 822 837 839 857 804 797 775 752 749 744 744 742 740 746
788 790 780 781 787 791 775 775 768 767 765 774 773 776 779 788 785 794 784 777 778 780 776 784 793 802 799 800 799 804 807 808 811 821 827 837 770 758 746 740 741 737 737 738 741
789 791 778 779 786 781 777 764 767 768 767 765 765 765 774 780 782 789 780 770 769 771 783 778 789 805 796 792 794 790 789 796 810 819 830 824 755 742 745 741 742 738 737 736 740
790 788 776 779 776 775 767 764 766 764 762 765 762 761 761 763 773 770 771 762 766 767 769 773 786 813 796 795 796 792 790 784 794 809 794 813 747 747 743 741 741 744 739 738 739
788 786 780 776 770 768 766 761 764 758 763 760 761 764 760 755 756 763 761 760 761 760 761 759 778 782 773 768 778 787 783 779 775 796 759 777 729 736 735 735 737 739 735 737 734
782 780 774 773 772 772 770 763 759 760 755 755 757 759 759 758 759 754 755 756 761 759 760 761 770 774 760 766 770 771 772 778 771 752 776 736 751 708 729 731 731 729 731 732 731
772 777 774 773 769 768 767 764 765 760 757 750 754 746 753 756 755 758 755 757 752 761 757 758 771 771 767 762 769 770 776 765 759 752 758 740 739 696 717 725 729 728 726 723 724
765 767 771 767 769 772 763 757 756 757 752 753 755 752 744 743 742 742 748 746 741 743 755 757 763 770 753 751 764 763 754 743 748 741 742 749 708 707 712 715 712 715 718 717 717